DW9989 Weather Reports


time (UTC)temp
C
wind
direction
speed
KPH
gust
KPH
rain 1hr
cm
rain 24hr
cm
rain mn
cm
humidity
%
barometer
mb
20260505024516 22 91 8.0 16.1 0.00 0.00 0.00 76 1016.0
20260505023516 22 101 11.3 19.3 0.00 0.00 0.00 76 1015.7
20260505022536 22 97 9.7 20.9 0.00 0.00 0.00 75 1015.7
20260505021516 22 96 8.0 16.1 0.00 0.00 0.00 75 1015.6
20260505020516 23 101 9.7 17.7 0.00 0.00 0.00 74 1015.5
20260505015536 23 101 9.7 17.7 0.00 0.00 0.00 73 1015.5
20260505014516 23 99 11.3 17.7 0.00 0.00 0.00 73 1015.4
20260505013516 23 103 9.7 17.7 0.00 0.00 0.00 73 1015.3
20260505012536 23 107 12.9 20.9 0.00 0.00 0.00 72 1015.2
20260505011516 23 104 11.3 17.7 0.00 0.00 0.00 71 1015.1
20260505010516 23 103 12.9 22.5 0.00 0.00 0.00 71 1014.8
20260505005536 24 99 11.3 17.7 0.00 0.00 0.00 70 1014.8
20260505004516 24 107 12.9 20.9 0.00 0.00 0.00 70 1014.4
20260505003516 24 100 11.3 22.5 0.00 0.00 0.00 69 1014.4
20260505002516 25 99 12.9 20.9 0.00 0.00 0.00 68 1014.5
20260505001516 25 85 11.3 24.1 0.00 0.00 0.00 68 1014.4
20260505000536 25 96 12.9 20.9 0.00 0.00 0.00 66 1013.9
20260504235536 26 93 11.3 24.1 0.00 0.00 0.00 65 1013.7
20260504234516 26 99 8.0 14.5 0.00 0.00 0.00 64 1013.6
20260504233516 26 93 11.3 25.7 0.00 0.00 0.00 63 1013.7
20260504232556 27 97 11.3 25.7 0.00 0.00 0.00 62 1013.6
20260504231536 27 85 11.3 20.9 0.00 0.00 0.00 61 1013.6
20260504230637 27 105 11.3 25.7 0.00 0.00 0.00 60 1013.5
20260504225516 27 57 12.9 24.1 0.00 0.00 0.00 63 1013.4
20260504224516 27 94 11.3 19.3 0.00 0.00 0.00 58 1013.3
20260504223516 28 82 8.0 16.1 0.00 0.00 0.00 58 1013.4
20260504222516 27 91 11.3 19.3 0.00 0.00 0.00 58 1013.5
20260504221556 28 103 9.7 19.3 0.00 0.00 0.00 56 1013.4
20260504220556 28 88 8.0 14.5 0.00 0.00 0.00 57 1013.4
20260504215656 28 89 11.3 19.3 0.00 0.00 0.00 54 1013.4
20260504214516 28 94 9.7 22.5 0.00 0.00 0.00 54 1013.4
20260504213556 28 66 12.9 19.3 0.00 0.00 0.00 54 1013.4
20260504212516 28 70 9.7 16.1 0.00 0.00 0.00 57 1013.3
20260504211516 28 48 14.5 22.5 0.00 0.00 0.00 55 1013.4
20260504210536 30 107 6.4 12.9 0.00 0.00 0.00 49 1013.4
20260504205636 29 131 6.4 16.1 0.00 0.00 0.00 50 1013.4
20260504204536 29 115 12.9 22.5 0.00 0.00 0.00 50 1013.5
20260504203516 28 62 4.8 9.7 0.00 0.00 0.00 50 1013.4
20260504202516 28 73 9.7 14.5 0.00 0.00 0.00 52 1013.6
20260504201516 29 93 14.5 25.7 0.00 0.00 0.00 49 1013.7
20260504200516 29 29 11.3 19.3 0.00 0.00 0.00 53 1013.8
20260504195515 30 105 8.0 14.5 0.00 0.00 0.00 47 1013.9
20260504194536 30 139 12.9 25.7 0.00 0.00 0.00 47 1013.9
20260504193636 30 88 6.4 14.5 0.00 0.00 0.00 47 1014.2
20260504192516 29 120 11.3 17.7 0.00 0.00 0.00 48 1014.1
20260504191536 28 47 11.3 24.1 0.00 0.00 0.00 52 1014.2
20260504190515 29 92 12.9 20.9 0.00 0.00 0.00 48 1014.6
20260504185556 28 76 8.0 16.1 0.00 0.00 0.00 50 1014.5
20260504184556 28 78 12.9 20.9 0.00 0.00 0.00 49 1014.8
20260504183616 29 69 11.3 22.5 0.00 0.00 0.00 47 1015.2
20260504182516 28 91 8.0 17.7 0.00 0.00 0.00 53 1015.5
20260504181535 28 102 11.3 20.9 0.00 0.00 0.00 51 1015.8
20260504180515 28 52 11.3 25.7 0.00 0.00 0.00 52 1015.7
20260504175515 28 135 6.4 12.9 0.00 0.00 0.00 51 1015.7
20260504174515 27 56 11.3 19.3 0.00 0.00 0.00 53 1015.8
20260504173535 27 82 8.0 17.7 0.00 0.00 0.00 52 1016.2
20260504172535 27 77 6.4 20.9 0.00 0.00 0.00 54 1016.0
20260504171515 27 60 16.1 25.7 0.00 0.00 0.00 56 1016.3
20260504170555 27 55 9.7 17.7 0.00 0.00 0.00 55 1016.1
20260504150517 25 62 16.1 22.5 0.00 0.00 0.00 61 1017.2
20260504140537 23 65 17.7 25.7 0.00 0.00 0.00 72 1017.0
20260504130537 22 52 16.1 24.1 0.00 0.00 0.00 74 1016.8
20260504110537 18 33 14.5 19.3 0.00 0.00 0.00 85 1015.9
20260504100536 19 27 14.5 19.3 0.00 0.00 0.00 86 1015.7
20260504081516 20 28 12.9 17.7 0.00 0.03 0.00 84 1015.4
20260504080516 20 28 12.9 19.3 0.00 0.03 0.00 85 1015.5
20260504050516 20 54 6.4 14.5 0.00 0.05 0.00 82 1016.5
20260504045516 21 54 6.4 8.0 0.00 0.05 0.00 84 1016.5
20260504044516 21 52 4.8 8.0 0.00 0.05 0.00 82 1016.9
20260504043516 21 51 8.0 12.9 0.00 0.05 0.00 82 1017.1
20260504042556 21 58 4.8 8.0 0.00 0.05 0.00 82 1017.0
20260504041516 21 68 4.8 8.0 0.00 0.08 0.00 82 1017.3
20260504040516 21 45 4.8 8.0 0.00 0.08 0.00 82 1017.5
20260504035516 21 51 6.4 9.7 0.00 0.08 0.08 82 1017.5
20260504034536 21 51 4.8 8.0 0.00 0.08 0.08 83 1017.5
20260504033516 21 48 3.2 6.4 0.00 0.10 0.08 82 1017.4
20260504032536 21 70 4.8 8.0 0.00 0.10 0.08 82 1017.2
20260504030516 21 83 4.8 11.3 0.00 0.10 0.08 80 1017.1
20260504025556 21 75 4.8 12.9 0.00 0.10 0.08 81 1017.0